Lapse_Rate
1.2 0.4 0.1 0.3 2.1 6.5 6.0 5.9 5.7 4.7 4.7 3.9 4.9 4.4 5.8 5.3 5.4 5.6 4.8 4.8 5.9 4.4
1.1 1.7 0.3 -0.2 0.7 5.9 6.4 6.2 6.2 5.1 5.4 5.0 5.0 6.1 5.2 5.4 5.6 5.8 4.2 4.5 4.9 5.3
1.5 1.9 2.0 1.2 0.6 1.9 6.3 5.8 6.0 5.7 5.7 5.5 5.4 5.6 5.5 5.6 5.2 5.6 5.2 4.0 4.7 5.0
2.2 2.1 3.1 2.3 0.5 2.6 5.4 5.1 5.2 5.3 5.3 5.3 4.6 4.5 4.4 6.0 5.2 5.4 5.7 4.8 3.7 4.8
3.7 2.5 2.3 2.7 1.4 2.8 3.5 5.7 5.0 4.7 5.4 5.4 5.4 5.7 5.7 5.8 5.3 5.8 5.9 5.5 4.8 4.9
4.1 4.1 2.2 1.7 1.4 2.0 2.5 6.0 4.7 4.7 4.6 5.4 5.5 5.8 5.9 6.0 5.5 5.0 5.5 5.3 5.4 5.6
4.7 4.1 2.7 3.0 1.5 2.1 2.2 4.1 5.9 4.8 4.4 4.8 5.3 5.7 5.7 5.9 5.3 4.8 5.1 4.6 4.8 5.0
4.9 4.4 4.1 3.2 1.2 1.5 1.2 2.4 5.3 5.3 4.7 4.8 5.4 5.8 5.7 5.7 5.4 4.8 4.7 4.0 4.4 4.9
5.1 5.0 4.5 3.6 2.3 1.8 1.9 1.6 4.1 6.2 5.2 5.3 5.3 4.1 3.6 5.0 5.2 4.8 4.7 4.7 4.1 4.6
5.3 5.1 3.8 4.0 3.3 2.3 1.0 0.7 2.4 5.7 5.1 5.2 5.3 3.0 3.6 3.2 5.3 4.7 5.4 4.9 4.5 3.8
5.4 4.9 4.2 4.5 3.8 2.1 0.7 0.8 1.1 4.0 5.0 5.0 4.2 2.2 3.3 3.0 6.0 5.2 5.1 4.9 4.0 3.4
5.5 5.1 4.5 4.5 4.5 2.0 -0.0 -0.2 -1.4 -1.3 4.5 5.2 4.2 1.8 1.9 2.4 4.4 4.4 3.8 4.2 3.3 3.6
5.5 5.0 4.8 4.5 4.9 3.5 2.7 0.8 -1.3 -1.9 -1.3 -0.4 0.3 1.3 1.5 2.9 3.5 3.7 3.8 3.1 2.8 1.9
5.5 4.8 4.8 4.6 4.6 4.4 3.6 3.2 0.9 -0.4 -2.0 -2.4 -1.8 -1.2 1.0 2.4 3.8 4.2 3.4 3.3 2.6 2.3
Wind_Speed
14 11 13 14 13 13 12 13 16 15 16 15 16 15 15 11 11 12 10 13 11 6
14 14 15 19 13 17 16 13 17 18 19 18 16 15 16 12 14 13 11 12 11 8
16 15 15 17 16 18 16 17 17 18 19 17 17 17 16 14 15 14 11 9 12 11
16 16 15 17 16 15 15 21 19 17 17 18 17 17 16 16 16 16 15 14 13 13
16 15 16 15 17 16 16 14 20 19 18 16 18 18 19 18 16 18 17 15 14 12
15 15 15 17 15 15 16 17 14 18 20 17 17 18 19 19 17 17 15 14 15 16
15 15 15 16 15 13 14 10 17 17 18 18 17 17 18 19 18 18 16 16 15 15
16 14 15 15 13 13 11 9 14 17 17 18 17 14 18 19 18 18 17 16 16 15
15 15 13 13 12 11 10 9 12 19 18 18 14 21 23 20 17 17 17 16 15 14
15 15 14 13 10 8 6 5 12 14 16 18 18 22 26 23 16 16 16 16 15 14
16 14 13 11 10 6 4 3 3 9 16 17 13 19 27 26 17 14 16 16 16 16
16 15 15 12 11 9 7 5 6 4 11 15 13 23 19 20 14 13 13 11 12 13
16 15 15 14 13 9 6 7 8 9 6 13 7 4 21 16 8 10 9 8 8 13
16 15 14 14 13 13 11 10 11 12 9 11 14 12 5 13 10 9 8 8 7 7
Wind_Direction
304 299 295 293 288 213 201 200 192 189 187 195 199 189 186 185 191 192 191 187 195 187
301 293 292 290 286 262 196 196 194 195 196 194 194 195 186 188 195 196 186 187 188 198
299 293 287 281 280 295 201 188 190 193 198 196 193 191 189 190 193 195 197 185 190 200
298 295 289 282 281 271 244 183 178 186 191 191 192 192 191 193 191 194 203 197 183 197
300 299 291 278 273 267 276 206 183 181 186 192 194 192 192 192 192 194 199 200 191 192
308 298 294 287 283 282 276 208 191 186 185 191 198 197 197 196 194 195 195 195 196 198
311 305 299 286 280 268 263 266 192 193 187 188 193 202 199 199 195 194 196 195 202 200
317 312 296 287 281 270 267 260 220 192 195 190 192 198 200 199 198 196 196 198 200 199
321 310 303 299 283 265 250 251 250 204 190 190 194 190 189 194 195 192 191 195 197 198
327 314 324 311 294 285 273 279 249 202 191 191 198 187 187 187 195 191 193 193 190 193
329 328 330 320 318 321 315 286 269 241 203 191 184 177 186 181 190 190 193 195 191 188
335 331 342 341 338 356 2 18 19 351 220 194 186 168 182 181 186 181 189 187 187 189
339 339 344 353 358 5 11 26 55 42 28 60 67 82 170 177 162 176 180 171 172 176
342 345 346 2 10 13 19 27 47 55 27 41 33 34 65 182 173 179 174 175 175 178